weather.gov     
National Weather Service

Regional Weather Roundup
NWS Homepage
This page is being discontinued on March 12, 2014.
The same data is available at this site. Please update your bookmarks.
Thank you, and we apologize for the inconvenience.
Please send an email to SR-SRH.Webmaster@noaa.gov with any concerns.


Current Version
Previous Version:    01  02  03  04  05  06  07  08  09  10  11  12  13  14  15  16  17  18  19  20  21  22  23  24  25  26  
[Printable]
963
ASUS42 KRAH 172210
RWRRAH
NORTH CAROLINA WEATHER ROUNDUP
NATIONAL WEATHER SERVICE RALEIGH NC
500 PM EST WED DEC 17 2014

NOTE: "FAIR" INDICATES FEW OR NO CLOUDS BELOW 12,000 FEET WITH NO
SIGNIFICANT WEATHER AND/OR OBSTRUCTIONS TO VISIBILITY.

NCZ001-053-055-056-065-067-172300-
WESTERN NORTH CAROLINA

CITY           SKY/WX    TMP DP  RH WIND       PRES   REMARKS
ASHEVILLE      CLEAR     44  31  60 N15       30.09S
JEFFERSON      CLEAR     41  26  54 W9        30.05R
MORGANTON      CLEAR     51  39  63 CALM      30.10R
HICKORY        CLEAR     54  30  40 N3        30.05R
RUTHERFORDTON  CLEAR     56  33  42 E3        30.07R
MOUNT AIRY     CLEAR     52  27  37 NW5       30.07R
BOONE          CLEAR     39  27  62 NW9       30.07R WCI  33
$$

NCZ021-022-025-041-071-084-088-172300-
CENTRAL NORTH CAROLINA

CITY           SKY/WX    TMP DP  RH WIND       PRES   REMARKS
CHARLOTTE      PTCLDY    56  33  42 W5        30.07R
GREENSBORO     MOCLDY    51  32  48 NW5       30.03R
WINSTON-SALEM  CLEAR     55  30  38 NW3       30.05R
RALEIGH-DURHAM PTCLDY    55  34  45 W3        30.04R
FORT BRAGG     CLEAR     56  39  53 W7        30.05R
FAYETTEVILLE   CLEAR     57  38  48 W7        30.05R
BURLINGTON     CLEAR     53  30  41 W6        30.03R
LAURINBURG     CLEAR     55  39  54 W5        30.07R
$$

NCZ011-015-027-028-043-044-047-080-103-172300-
NORTHEASTERN NORTH CAROLINA

CITY           SKY/WX    TMP DP  RH WIND       PRES   REMARKS
ROCKY MT-WILSO CLEAR     54  37  52 W3        30.03R
GREENVILLE     CLEAR     55  37  50 CALM      30.04R
WASHINGTON     CLEAR     53  40  62 CALM      30.02R
ELIZABETH CITY CLEAR     55  39  54 W5        29.99S
MANTEO         CLEAR     49  44  82 S6        30.00F
CAPE HATTERAS  CLEAR     50  44  80 W3        30.01S
$$

NCZ078-087-090-091-093-098-101-172300-
SOUTHEASTERN NORTH CAROLINA

CITY           SKY/WX    TMP DP  RH WIND       PRES   REMARKS
LUMBERTON      CLEAR     57  40  52 W5        30.05S
GOLDSBORO      CLEAR     54  45  72 W6        30.02R
KINSTON        CLEAR     55  43  62 CALM      30.04R
KENANSVILLE    CLEAR     55  38  53 W3        30.04S
NEW BERN       CLEAR     58  40  51 CALM      30.03S
CHERRY POINT   NOT AVBL
BEAUFORT       CLEAR     54  46  74 SW6       30.03S
JACKSONVILLE   CLEAR     57  40  52 W7        30.03S
WILMINGTON     PTCLDY    58  40  51 W7        30.04S
$$





U.S. Dept. of Commerce
NOAA National Weather Service
1325 East West Highway
Silver Spring, MD 20910
E-mail: w-nws.webmaster@noaa.gov
Page last modified: May 16, 2007
NATIONAL WEATHER SERVICE: for Safety, for Work, for Fun - FOR LIFE